BEIDOU IGSO-6 1 41434U 16021A 21056.82379138 -.00000107 00000-0 00000+0 0 9999 2 41434 57.4006 57.8155 0040835 216.0533 273.2746 1.00291898 18054 CZ-3A R/B 1 41435U 16021B 21056.45536777 -.00000009 00000-0 00000-0 0 9995 2 41435 55.1527 19.2876 6857138 54.7466 351.5048 2.39502254 42562